Terminal Aerodrome Forecast
Issued by NWS

Current Version | Previous Version | Graphics & Text | Print | Product List | Glossary On
Versions: 1 2 3 4 5 6 7 8 9 10 11 12 13 14 15 16 17 18 19 20 21 22 23 24 25 26 27 28 29 30 31
000
FTUS41 KRNK 012246 AAC
TAFLWB
TAF AMD
KLWB 012246Z 0123/0218 00000KT 2SM -DZ BR OVC017
      TEMPO 0123/0202 4SM -RA SCT020 OVC045
     FM020300 26004KT 5SM BR OVC007
     FM020900 28007KT 4SM -SN SCT005 OVC012
     FM021300 30010G17KT P6SM OVC015=

USA.gov is the U.S. government's official web portal to all federal, state and local government web resources and services.